CW2433 Weather Reports


Display with metric or nautical units.
time (UTC)temp
F
wind
direction
speed
MPH
gust
MPH
rain 1hr
in
rain 24hr
in
rain mn
in
humidity
%
barometer
mb
20260902101010 75 65 0.0 1.0 0.00 0.00 0.00 77 1011.7
20260902100509 75 66 0.0 0.0 0.00 0.00 0.00 77 1011.8
20260902095509 75 66 0.0 0.0 0.00 0.00 0.00 76 1011.8
20260902095009 75 66 0.0 0.0 0.00 0.00 0.00 76 1011.7
20260902094509 76 66 0.0 0.0 0.00 0.00 0.00 76 1011.7
20260902094009 76 66 0.0 0.0 0.00 0.00 0.00 75 1011.8
20260902093509 76 66 0.0 1.0 0.00 0.00 0.00 74 1011.9
20260902093009 76 66 0.0 1.0 0.00 0.00 0.00 74 1012.0
20260902092509 76 66 0.0 0.0 0.00 0.00 0.00 74 1012.0
20260902092009 77 66 0.0 2.0 0.00 0.00 0.00 73 1011.9
20260902091009 77 66 1.0 2.0 0.00 0.00 0.00 73 1011.7
20260902090509 77 65 0.0 2.0 0.00 0.00 0.00 73 1011.6
20260902090010 77 66 0.0 2.0 0.00 0.00 0.00 73 1011.6
20260902085509 77 66 0.0 2.0 0.00 0.00 0.00 72 1011.6
20260902085009 77 66 0.0 2.0 0.00 0.00 0.00 72 1011.7
20260902084009 77 9 1.0 3.0 0.00 0.00 0.00 72 1012.0
20260902083509 77 334 2.0 3.0 0.00 0.00 0.00 72 1012.0
20260902083009 78 335 2.0 3.0 0.00 0.00 0.00 72 1011.9
20260902082509 78 124 1.0 3.0 0.00 0.00 0.00 72 1011.6
20260902082009 77 355 0.0 3.0 0.00 0.00 0.00 72 1011.9
20260902081510 77 315 0.0 7.0 0.00 0.00 0.00 72 1012.0
20260902080510 77 326 5.0 15.0 0.00 0.00 0.00 72 1012.0
20260902080010 77 334 6.0 12.0 0.00 0.00 0.00 73 1012.0
20260902075010 77 158 0.0 3.0 0.00 0.00 0.00 72 1011.0
20260902074510 77 143 2.0 3.0 0.00 0.00 0.00 72 1011.0
20260902074009 77 140 1.0 3.0 0.00 0.00 0.00 72 1011.0
20260902073509 78 133 1.0 3.0 0.00 0.00 0.00 71 1011.0
20260902073013 78 132 1.0 3.0 0.00 0.00 0.00 71 1010.9
20260902072510 78 139 2.0 3.0 0.00 0.00 0.00 71 1010.9
20260902071510 78 148 1.0 5.0 0.00 0.00 0.00 71 1011.0
20260902071009 78 142 1.0 5.0 0.00 0.00 0.00 70 1011.0
20260902070510 78 134 1.0 3.0 0.00 0.00 0.00 70 1010.9
20260902065510 79 130 1.0 3.0 0.00 0.00 0.00 69 1010.9
20260902064510 79 134 1.0 3.0 0.00 0.00 0.00 69 1010.9
20260902064010 79 134 1.0 2.0 0.00 0.00 0.00 69 1010.9
20260902063510 80 134 0.0 3.0 0.00 0.00 0.00 69 1010.8
20260902063010 80 133 1.0 6.0 0.00 0.00 0.00 68 1010.7
20260902062510 80 151 2.0 6.0 0.00 0.00 0.00 68 1010.5
20260902062010 80 160 1.0 5.0 0.00 0.00 0.00 68 1010.4
20260902061010 80 134 2.0 3.0 0.00 0.00 0.00 68 1010.4
20260902060510 80 163 2.0 3.0 0.00 0.00 0.00 67 1010.3
20260902060010 81 150 1.0 5.0 0.00 0.00 0.00 67 1010.2
20260902055510 81 140 1.0 5.0 0.00 0.00 0.00 67 1010.2
20260902055010 81 158 1.0 3.0 0.00 0.00 0.00 67 1010.2
20260902054510 81 168 1.0 5.0 0.00 0.00 0.00 67 1010.2
20260902054010 81 159 1.0 5.0 0.00 0.00 0.00 67 1010.3
20260902053509 81 160 1.0 5.0 0.00 0.00 0.00 67 1010.3
20260902053009 81 147 1.0 3.0 0.00 0.00 0.00 67 1010.3
20260902052009 82 134 1.0 5.0 0.00 0.00 0.00 67 1010.4
20260902050009 82 139 2.0 3.0 0.00 0.00 0.00 67 1010.5
20260902045511 82 142 1.0 3.0 0.00 0.00 0.00 67 1010.5
20260902045009 82 143 1.0 3.0 0.00 0.00 0.00 67 1010.4
20260902044509 83 144 1.0 3.0 0.00 0.00 0.00 67 1010.4
20260902043509 83 125 2.0 5.0 0.00 0.00 0.00 67 1010.5
20260902043009 83 121 1.0 3.0 0.00 0.00 0.00 67 1010.5
20260902042509 83 145 1.0 5.0 0.00 0.00 0.00 67 1010.5
20260902042009 83 156 1.0 5.0 0.00 0.00 0.00 67 1010.4
20260902041510 83 151 2.0 5.0 0.00 0.00 0.00 67 1010.4
20260902041009 83 161 1.0 5.0 0.00 0.00 0.00 67 1010.4
20260902040509 83 143 2.0 3.0 0.00 0.00 0.00 67 1010.4
20260902040009 84 141 1.0 3.0 0.00 0.00 0.00 67 1010.6
20260902035509 84 140 0.0 3.0 0.00 0.00 0.00 67 1010.7
20260902035009 84 167 1.0 3.0 0.00 0.00 0.00 66 1010.6
20260902034509 84 143 2.0 3.0 0.00 0.00 0.00 66 1010.7
20260902034009 84 133 0.0 3.0 0.00 0.00 0.00 66 1010.6
20260902033509 84 152 1.0 3.0 0.00 0.00 0.00 66 1010.6
20260902033010 84 135 0.0 3.0 0.00 0.00 0.00 66 1010.6
20260902032509 84 153 1.0 3.0 0.00 0.00 0.00 66 1010.5
20260902032009 85 139 1.0 3.0 0.00 0.00 0.00 66 1010.5
20260902031510 85 146 1.0 3.0 0.00 0.00 0.00 66 1010.5
20260902031010 85 132 1.0 3.0 0.00 0.00 0.00 66 1010.5
20260902030509 85 149 1.0 3.0 0.00 0.00 0.00 66 1010.5
20260902025510 85 131 0.0 3.0 0.00 0.00 0.00 66 1010.5
20260902025010 85 131 0.0 3.0 0.00 0.00 0.00 65 1010.5
20260902024509 85 141 0.0 3.0 0.00 0.00 0.00 65 1010.5
20260902024009 86 181 0.0 3.0 0.00 0.00 0.00 65 1010.3
20260902023010 86 156 1.0 3.0 0.00 0.00 0.00 64 1010.1
20260902022509 86 180 0.0 3.0 0.00 0.00 0.00 63 1010.0
20260902022010 87 134 1.0 3.0 0.00 0.00 0.00 62 1010.0
20260902021010 87 173 0.0 2.0 0.00 0.00 0.00 61 1010.0
20260902020510 88 173 0.0 2.0 0.00 0.00 0.00 61 1009.9
20260902020009 88 142 0.0 2.0 0.00 0.00 0.00 60 1009.9
20260902015010 89 142 1.0 2.0 0.00 0.00 0.00 59 1009.6
20260902014010 89 142 0.0 3.0 0.00 0.00 0.00 59 1009.4
20260902013510 90 192 0.0 2.0 0.00 0.00 0.00 58 1009.4
20260902013010 90 148 0.0 3.0 0.00 0.00 0.00 56 1009.4
20260902012510 90 148 1.0 3.0 0.00 0.00 0.00 56 1009.3
20260902012010 91 175 0.0 3.0 0.00 0.00 0.00 55 1009.3
20260902011510 91 160 0.0 1.0 0.00 0.00 0.00 55 1009.3
20260902011010 91 161 0.0 1.0 0.00 0.00 0.00 55 1009.2
20260902010510 92 161 0.0 3.0 0.00 0.00 0.00 54 1009.2
20260902010010 92 161 0.0 3.0 0.00 0.00 0.00 54 1009.2
20260902005509 92 150 0.0 3.0 0.00 0.00 0.00 53 1009.2
20260902005010 93 179 0.0 3.0 0.00 0.00 0.00 53 1009.1
20260902004510 93 179 1.0 3.0 0.00 0.00 0.00 52 1009.2
20260902004009 93 198 0.0 2.0 0.00 0.00 0.00 52 1009.0
20260902003009 94 198 0.0 3.0 0.00 0.00 0.00 51 1009.0
20260902002508 94 176 1.0 3.0 0.00 0.00 0.00 50 1009.0
20260902002009 94 156 1.0 3.0 0.00 0.00 0.00 50 1008.9
20260902001009 94 185 1.0 3.0 0.00 0.00 0.00 49 1009.2
20260902000509 94 157 2.0 3.0 0.00 0.00 0.00 49 1009.2
20260902000010 94 176 1.0 3.0 0.00 0.00 0.00 51 1009.3
20260901235509 94 172 1.0 3.0 0.00 0.00 0.00 50 1009.3
20260901235009 94 172 1.0 3.0 0.00 0.00 0.00 51 1009.3
20260901234512 94 201 2.0 3.0 0.00 0.00 0.00 50 1009.4
20260901234009 94 196 0.0 6.0 0.00 0.00 0.00 51 1009.4
20260901233509 94 196 2.0 7.0 0.00 0.00 0.00 50 1009.4
20260901233009 94 171 1.0 7.0 0.00 0.00 0.00 49 1009.4
20260901232509 94 191 2.0 3.0 0.00 0.00 0.00 50 1009.4
20260901232009 94 217 2.0 6.0 0.00 0.00 0.00 50 1009.4
20260901231510 95 199 1.0 6.0 0.00 0.00 0.00 50 1009.4
20260901231009 95 207 3.0 12.0 0.00 0.00 0.00 49 1009.4
20260901230509 95 210 3.0 12.0 0.00 0.00 0.00 49 1009.4
20260901225509 95 208 2.0 6.0 0.00 0.00 0.00 50 1009.5
20260901225009 95 215 2.0 6.0 0.00 0.00 0.00 50 1009.6
20260901224510 95 205 3.0 6.0 0.00 0.00 0.00 50 1009.7
20260901224009 95 206 3.0 9.0 0.00 0.00 0.00 50 1009.6
20260901223509 95 205 3.0 9.0 0.00 0.00 0.00 49 1009.6
20260901223010 95 187 3.0 7.0 0.00 0.00 0.00 49 1009.6
20260901222510 95 232 5.0 7.0 0.00 0.00 0.00 50 1009.7
20260901222010 95 192 3.0 9.0 0.00 0.00 0.00 51 1009.8
20260901221510 95 217 3.0 9.0 0.00 0.00 0.00 50 1009.8
20260901221009 95 209 5.0 10.0 0.00 0.00 0.00 50 1009.9
20260901220010 95 207 5.0 12.0 0.00 0.00 0.00 49 1009.9
20260901215509 95 207 5.0 12.0 0.00 0.00 0.00 49 1009.9
20260901214510 96 186 4.0 7.0 0.00 0.00 0.00 51 1009.9
20260901213510 96 197 4.0 7.0 0.00 0.00 0.00 51 1009.9
20260901213010 96 138 2.0 5.0 0.00 0.00 0.00 52 1009.9
20260901212510 96 185 2.0 6.0 0.00 0.00 0.00 52 1010.0
20260901211510 96 207 3.0 9.0 0.00 0.00 0.00 50 1010.1
20260901211010 96 203 3.0 9.0 0.00 0.00 0.00 50 1010.1
20260901210010 96 135 2.0 12.0 0.00 0.00 0.00 50 1010.1
20260901205510 96 209 5.0 10.0 0.00 0.00 0.00 48 1010.3
20260901205010 96 176 3.0 12.0 0.00 0.00 0.00 51 1010.4
20260901204510 96 172 4.0 12.0 0.00 0.00 0.00 49 1010.4
20260901204010 95 131 3.0 7.0 0.00 0.00 0.00 51 1010.5
20260901203510 95 182 3.0 6.0 0.00 0.00 0.00 51 1010.6
20260901203010 95 212 3.0 10.0 0.00 0.00 0.00 52 1010.6
20260901202010 94 175 3.0 10.0 0.00 0.00 0.00 51 1010.9
20260901201510 94 192 4.0 12.0 0.00 0.00 0.00 54 1010.9
20260901201009 93 213 3.0 12.0 0.00 0.00 0.00 55 1011.0
20260901200509 93 134 2.0 9.0 0.00 0.00 0.00 53 1011.0
20260901200009 93 174 4.0 9.0 0.00 0.00 0.00 54 1011.0
20260901195509 93 169 2.0 7.0 0.00 0.00 0.00 54 1011.1
20260901195009 93 136 2.0 5.0 0.00 0.00 0.00 54 1011.0
20260901194509 93 139 1.0 12.0 0.00 0.00 0.00 54 1011.1
20260901194009 92 164 4.0 12.0 0.00 0.00 0.00 53 1011.3
20260901193509 92 170 3.0 5.0 0.00 0.00 0.00 56 1011.3
20260901193009 92 161 3.0 6.0 0.00 0.00 0.00 54 1011.4
20260901192509 92 205 2.0 7.0 0.00 0.00 0.00 54 1011.5
20260901192009 92 132 3.0 7.0 0.00 0.00 0.00 53 1011.6
20260901191009 92 140 3.0 12.0 0.00 0.00 0.00 53 1011.8
20260901190509 92 152 2.0 9.0 0.00 0.00 0.00 54 1011.9
20260901190009 92 166 3.0 9.0 0.00 0.00 0.00 54 1011.8
20260901185509 92 140 2.0 7.0 0.00 0.00 0.00 55 1011.8
20260901185009 92 168 2.0 6.0 0.00 0.00 0.00 54 1011.7
20260901184509 92 166 1.0 7.0 0.00 0.00 0.00 55 1011.7
20260901183010 92 193 3.0 8.0 0.00 0.00 0.00 55 1011.8
20260901182509 92 215 3.0 8.0 0.00 0.00 0.00 54 1011.9
20260901182009 92 175 1.0 8.0 0.00 0.00 0.00 55 1012.0
20260901181509 92 174 2.0 7.0 0.00 0.00 0.00 53 1012.0
20260901181009 92 147 3.0 6.0 0.00 0.00 0.00 53 1012.1
20260901180509 92 188 3.0 6.0 0.00 0.00 0.00 53 1012.0
20260901180010 93 196 1.0 6.0 0.00 0.00 0.00 53 1012.1
20260901175509 93 189 3.0 6.0 0.00 0.00 0.00 52 1012.1
20260901175009 93 183 1.0 6.0 0.00 0.00 0.00 53 1012.2
20260901174510 93 188 2.0 6.0 0.00 0.00 0.00 53 1012.2
20260901174009 92 146 2.0 6.0 0.00 0.00 0.00 54 1012.2
20260901173509 92 148 1.0 6.0 0.00 0.00 0.00 54 1012.3
20260901173010 92 128 1.0 3.0 0.00 0.00 0.00 54 1012.4
20260901172510 92 123 1.0 5.0 0.00 0.00 0.00 54 1012.5
20260901172010 92 147 2.0 9.0 0.00 0.00 0.00 54 1012.5
20260901171510 91 175 2.0 9.0 0.00 0.00 0.00 54 1012.6
20260901171010 91 150 1.0 9.0 0.00 0.00 0.00 54 1012.6
20260901170509 91 158 1.0 5.0 0.00 0.00 0.00 52 1012.7
20260901170010 91 188 2.0 6.0 0.00 0.00 0.00 55 1012.5
20260901165510 91 170 1.0 6.0 0.00 0.00 0.00 54 1012.6
20260901165010 91 168 3.0 6.0 0.00 0.00 0.00 54 1012.6
20260901164510 90 158 2.0 6.0 0.00 0.00 0.00 55 1012.6
20260901164010 90 192 2.0 7.0 0.00 0.00 0.00 55 1012.7
20260901163510 89 158 3.0 7.0 0.00 0.00 0.00 55 1012.7
20260901163010 88 133 2.0 6.0 0.00 0.00 0.00 57 1012.8
20260901162510 88 150 2.0 5.0 0.00 0.00 0.00 58 1012.7
20260901162010 87 161 1.0 3.0 0.00 0.00 0.00 58 1012.8
20260901161010 86 203 1.0 3.0 0.00 0.00 0.00 60 1012.9
20260901160510 85 185 1.0 3.0 0.00 0.00 0.00 60 1012.8
20260901160010 85 180 1.0 3.0 0.00 0.00 0.00 61 1012.8
20260901154510 84 184 1.0 2.0 0.00 0.00 0.00 61 1012.7
20260901154010 83 184 0.0 3.0 0.00 0.00 0.00 62 1012.8
20260901153510 83 195 1.0 3.0 0.00 0.00 0.00 62 1012.8
20260901153009 83 160 0.0 2.0 0.00 0.00 0.00 62 1012.8
20260901152509 82 160 1.0 2.0 0.00 0.00 0.00 63 1012.8
20260901152009 82 222 0.0 2.0 0.00 0.00 0.00 62 1012.8
20260901151509 82 227 0.0 2.0 0.00 0.00 0.00 62 1012.8
20260901151009 82 286 1.0 2.0 0.00 0.00 0.00 65 1012.8
20260901150509 81 173 0.0 2.0 0.00 0.00 0.00 65 1012.9
20260901150009 81 173 0.0 2.0 0.00 0.00 0.00 68 1012.9
20260901145508 81 173 0.0 3.0 0.00 0.00 0.00 68 1012.9
20260901144509 80 173 1.0 3.0 0.00 0.00 0.00 71 1012.9
20260901144009 80 129 1.0 3.0 0.00 0.00 0.00 72 1012.9
20260901143509 80 148 1.0 5.0 0.00 0.00 0.00 72 1013.0
20260901143009 79 124 2.0 5.0 0.00 0.00 0.00 73 1013.1
20260901142509 79 169 2.0 5.0 0.00 0.00 0.00 73 1013.2
20260901142009 79 138 1.0 3.0 0.00 0.00 0.00 73 1013.3
20260901141509 78 140 1.0 5.0 0.00 0.00 0.00 74 1013.4
20260901141009 78 162 1.0 7.0 0.00 0.00 0.00 74 1013.3
20260901140509 78 138 2.0 7.0 0.00 0.00 0.00 74 1013.3
20260901140010 78 159 2.0 7.0 0.00 0.00 0.00 75 1013.3
20260901135509 77 137 2.0 6.0 0.00 0.00 0.00 75 1013.3
20260901135009 77 169 1.0 3.0 0.00 0.00 0.00 77 1013.3
20260901134509 77 130 1.0 8.0 0.00 0.00 0.00 78 1013.3
20260901133509 76 137 1.0 5.0 0.00 0.00 0.00 80 1013.4
20260901133010 76 160 1.0 3.0 0.00 0.00 0.00 80 1013.4
20260901132509 76 163 1.0 3.0 0.00 0.00 0.00 81 1013.5
20260901132009 76 143 0.0 3.0 0.00 0.00 0.00 82 1013.5
20260901131510 75 169 0.0 5.0 0.00 0.00 0.00 83 1013.5
20260901131009 75 138 1.0 5.0 0.00 0.00 0.00 83 1013.4
20260901130509 75 142 1.0 3.0 0.00 0.00 0.00 84 1013.4
20260901130010 75 151 0.0 2.0 0.00 0.00 0.00 85 1013.3
20260901125009 75 165 1.0 3.0 0.00 0.00 0.00 86 1013.2
20260901124510 75 164 1.0 3.0 0.00 0.00 0.00 86 1013.1
20260901123509 75 158 1.0 1.0 0.00 0.00 0.00 87 1012.9
20260901123010 75 133 0.0 1.0 0.00 0.00 0.00 87 1012.9
20260901122510 75 133 0.0 3.0 0.00 0.00 0.00 87 1012.8
20260901122009 75 133 0.0 3.0 0.00 0.00 0.00 87 1012.7
20260901121510 75 144 0.0 1.0 0.00 0.00 0.00 87 1012.5
20260901121010 75 144 0.0 3.0 0.00 0.00 0.00 87 1012.5
20260901120510 75 144 1.0 3.0 0.00 0.00 0.00 88 1012.5
20260901120010 75 148 0.0 2.0 0.00 0.00 0.00 88 1012.3
20260901115010 75 115 0.0 3.0 0.00 0.00 0.00 88 1012.3
20260901114510 75 115 0.0 3.0 0.00 0.00 0.00 88 1012.4
20260901114010 75 146 0.0 2.0 0.00 0.00 0.00 88 1012.4
20260901113510 75 146 0.0 3.0 0.00 0.00 0.00 88 1012.4
20260901113010 75 132 1.0 3.0 0.00 0.00 0.00 88 1012.4
20260901112510 75 134 0.0 2.0 0.00 0.00 0.00 89 1012.4
20260901112010 75 152 0.0 2.0 0.00 0.00 0.00 89 1012.5
20260901111510 75 127 0.0 3.0 0.00 0.00 0.00 89 1012.5
20260901111010 75 126 1.0 3.0 0.00 0.00 0.00 89 1012.5
20260901110510 75 138 1.0 3.0 0.00 0.00 0.00 89 1012.6
20260901105510 75 134 0.0 3.0 0.00 0.00 0.00 89 1012.5
20260901104509 75 153 0.0 2.0 0.00 0.00 0.00 89 1012.4
20260901104009 75 138 1.0 2.0 0.00 0.00 0.00 89 1012.4
20260901103509 75 138 0.0 1.0 0.00 0.00 0.00 89 1012.5
20260901103009 75 138 0.0 2.0 0.00 0.00 0.00 89 1012.6
20260901102509 75 138 0.0 3.0 0.00 0.00 0.00 90 1012.5
20260901102009 75 138 1.0 3.0 0.00 0.00 0.00 90 1012.5
20260901101509 75 161 1.0 3.0 0.00 0.00 0.00 90 1012.6